| time (UTC) | temp C | wind direction | speed KPH | gust KPH | rain 1hr cm | rain 24hr cm | rain mn cm | humidity % | barometer mb |
| 20260506071531 | 6 | 6 | 11.3 | 20.9 | 0.00 | 0.00 | 0.00 | 79 | 1013.4 |
| 20260506071031 | 6 | 37 | 9.7 | 20.9 | 0.00 | 0.00 | 0.00 | 80 | 1013.5 |
| 20260506070531 | 6 | 23 | 12.9 | 19.3 | 0.00 | 0.00 | 0.00 | 79 | 1013.5 |
| 20260506062025 | 5 | 347 | 8.0 | 11.3 | 0.00 | 0.00 | 0.00 | 81 | 1013.1 |
| 20260506061522 | 5 | 353 | 6.4 | 16.1 | 0.00 | 0.00 | 0.00 | 80 | 1013.1 |
| 20260506061241 | 5 | 0 | 8.0 | 16.1 | 0.00 | 0.00 | 0.00 | 81 | 1013.1 |
| 20260506051015 | 3 | 3 | 8.0 | 16.1 | 0.00 | 0.00 | 0.00 | 84 | 1013.2 |
| 20260506050515 | 3 | 0 | 8.0 | 16.1 | 0.00 | 0.00 | 0.00 | 84 | 1013.1 |
| 20260506045013 | 3 | 0 | 8.0 | 17.7 | 0.00 | 0.00 | 0.00 | 84 | 1013.1 |
| 20260506044513 | 3 | 0 | 8.0 | 17.7 | 0.00 | 0.00 | 0.00 | 84 | 1013.1 |
| 20260506044010 | 3 | 0 | 9.7 | 19.3 | 0.00 | 0.00 | 0.00 | 84 | 1013.1 |
| 20260506043511 | 2 | 14 | 11.3 | 19.3 | 0.00 | 0.00 | 0.00 | 85 | 1013.1 |
| 20260506043012 | 2 | 350 | 8.0 | 16.1 | 0.00 | 0.00 | 0.00 | 85 | 1013.1 |
| 20260506042509 | 2 | 0 | 6.4 | 16.1 | 0.00 | 0.00 | 0.00 | 85 | 1013.1 |
| 20260506042008 | 2 | 4 | 8.0 | 16.1 | 0.00 | 0.00 | 0.00 | 85 | 1013.1 |
| 20260506041509 | 2 | 0 | 4.8 | 11.3 | 0.00 | 0.00 | 0.00 | 85 | 1013.1 |
| 20260506041008 | 2 | 0 | 6.4 | 16.1 | 0.00 | 0.00 | 0.00 | 85 | 1013.1 |
| 20260506040509 | 2 | 0 | 8.0 | 16.1 | 0.00 | 0.00 | 0.00 | 85 | 1013.1 |
| 20260506040013 | 2 | 353 | 8.0 | 14.5 | 0.00 | 0.00 | 0.00 | 85 | 1013.1 |
| 20260506035504 | 2 | 0 | 8.0 | 16.1 | 0.00 | 0.00 | 0.00 | 85 | 1013.1 |
| 20260506035004 | 2 | 0 | 9.7 | 16.1 | 0.00 | 0.00 | 0.00 | 86 | 1013.0 |
| 20260506034503 | 2 | 1 | 6.4 | 16.1 | 0.00 | 0.00 | 0.00 | 86 | 1013.0 |
| 20260506034003 | 2 | 357 | 6.4 | 16.1 | 0.00 | 0.00 | 0.00 | 86 | 1013.1 |
| 20260506033501 | 3 | 355 | 8.0 | 16.1 | 0.00 | 0.00 | 0.00 | 86 | 1013.0 |
| 20260506033003 | 3 | 353 | 8.0 | 16.1 | 0.00 | 0.00 | 0.00 | 86 | 1013.1 |
| 20260506032501 | 3 | 354 | 6.4 | 14.5 | 0.00 | 0.00 | 0.00 | 86 | 1013.1 |
| 20260506032001 | 3 | 0 | 8.0 | 14.5 | 0.00 | 0.00 | 0.00 | 86 | 1013.2 |
| 20260506031503 | 3 | 354 | 6.4 | 14.5 | 0.00 | 0.00 | 0.00 | 85 | 1013.2 |
| 20260506031007 | 3 | 348 | 8.0 | 17.7 | 0.00 | 0.00 | 0.00 | 86 | 1013.2 |
| 20260506030505 | 3 | 340 | 8.0 | 17.7 | 0.00 | 0.00 | 0.00 | 86 | 1013.2 |
| 20260506030004 | 3 | 355 | 9.7 | 16.1 | 0.00 | 0.00 | 0.00 | 87 | 1013.3 |
| 20260506025501 | 3 | 0 | 8.0 | 16.1 | 0.00 | 0.00 | 0.00 | 87 | 1013.1 |
| 20260506024958 | 3 | 350 | 6.4 | 14.5 | 0.00 | 0.00 | 0.00 | 87 | 1013.1 |
| 20260506024456 | 3 | 338 | 8.0 | 14.5 | 0.00 | 0.00 | 0.00 | 87 | 1013.2 |
| 20260506023955 | 3 | 355 | 8.0 | 16.1 | 0.00 | 0.00 | 0.00 | 87 | 1013.2 |
| 20260506023455 | 3 | 350 | 6.4 | 16.1 | 0.00 | 0.00 | 0.00 | 87 | 1013.2 |
| 20260506022952 | 3 | 348 | 8.0 | 14.5 | 0.00 | 0.00 | 0.00 | 87 | 1013.3 |
| 20260506022453 | 3 | 350 | 6.4 | 16.1 | 0.00 | 0.00 | 0.00 | 87 | 1013.2 |
| 20260506021952 | 3 | 355 | 8.0 | 16.1 | 0.00 | 0.00 | 0.00 | 87 | 1013.2 |
| 20260506021451 | 3 | 345 | 6.4 | 14.5 | 0.00 | 0.00 | 0.00 | 88 | 1013.2 |
| 20260506020950 | 3 | 343 | 6.4 | 14.5 | 0.00 | 0.00 | 0.00 | 87 | 1013.3 |
| 20260506020707 | 3 | 354 | 6.4 | 11.3 | 0.00 | 0.00 | 0.00 | 87 | 1013.3 |
| 20260506015449 | 3 | 334 | 8.0 | 14.5 | 0.00 | 0.00 | 0.00 | 87 | 1013.2 |
| 20260506014948 | 3 | 350 | 6.4 | 16.1 | 0.00 | 0.00 | 0.00 | 87 | 1013.3 |
| 20260506014446 | 3 | 354 | 6.4 | 16.1 | 0.00 | 0.00 | 0.00 | 87 | 1013.4 |
| 20260506013948 | 3 | 345 | 8.0 | 14.5 | 0.00 | 0.00 | 0.00 | 87 | 1013.5 |
| 20260506013709 | 4 | 0 | 8.0 | 14.5 | 0.00 | 0.00 | 0.00 | 87 | 1013.4 |
| 20260506013205 | 4 | 0 | 6.4 | 14.5 | 0.00 | 0.00 | 0.00 | 87 | 1013.4 |
| 20260506012709 | 4 | 357 | 8.0 | 14.5 | 0.00 | 0.00 | 0.00 | 87 | 1013.4 |
| 20260506011945 | 4 | 0 | 9.7 | 14.5 | 0.00 | 0.00 | 0.00 | 87 | 1013.4 |
| 20260506011445 | 4 | 0 | 6.4 | 14.5 | 0.00 | 0.00 | 0.00 | 87 | 1013.6 |
| 20260506011210 | 4 | 0 | 8.0 | 14.5 | 0.00 | 0.00 | 0.00 | 87 | 1013.5 |
| 20260506010443 | 4 | 0 | 8.0 | 14.5 | 0.00 | 0.00 | 0.00 | 87 | 1013.6 |
| 20260506005940 | 4 | 0 | 9.7 | 14.5 | 0.00 | 0.00 | 0.00 | 87 | 1013.5 |
| 20260506005440 | 4 | 0 | 6.4 | 11.3 | 0.00 | 0.00 | 0.00 | 87 | 1013.5 |
| 20260506004939 | 4 | 0 | 6.4 | 11.3 | 0.00 | 0.00 | 0.00 | 87 | 1013.6 |
| 20260506003437 | 4 | 0 | 8.0 | 16.1 | 0.00 | 0.00 | 0.00 | 87 | 1013.6 |
| 20260506002936 | 5 | 11 | 3.2 | 11.3 | 0.00 | 0.00 | 0.00 | 87 | 1013.7 |
| 20260506002436 | 5 | 10 | 4.8 | 16.1 | 0.00 | 0.00 | 0.00 | 87 | 1013.8 |
| 20260506001937 | 5 | 1 | 6.4 | 16.1 | 0.00 | 0.00 | 0.00 | 87 | 1013.7 |
| 20260506001659 | 5 | 24 | 8.0 | 16.1 | 0.00 | 0.00 | 0.00 | 88 | 1013.7 |
| 20260506000938 | 5 | 4 | 9.7 | 14.5 | 0.00 | 0.00 | 0.00 | 88 | 1013.8 |
| 20260506000438 | 5 | 3 | 8.0 | 16.1 | 0.00 | 0.00 | 0.00 | 87 | 1013.8 |
| 20260505235936 | 5 | 0 | 8.0 | 16.1 | 0.00 | 0.00 | 0.00 | 87 | 1013.8 |
| 20260505235654 | 5 | 3 | 4.8 | 11.3 | 0.00 | 0.00 | 0.00 | 87 | 1013.8 |
| 20260505234936 | 5 | 14 | 6.4 | 11.3 | 0.00 | 0.00 | 0.00 | 87 | 1013.8 |
| 20260505234436 | 5 | 39 | 4.8 | 8.0 | 0.00 | 0.00 | 0.00 | 87 | 1013.8 |
| 20260505233935 | 5 | 41 | 4.8 | 9.7 | 0.00 | 0.00 | 0.00 | 86 | 1013.8 |
| 20260505233435 | 5 | 38 | 6.4 | 9.7 | 0.00 | 0.00 | 0.00 | 86 | 1013.8 |
| 20260505232936 | 5 | 42 | 4.8 | 9.7 | 0.00 | 0.00 | 0.00 | 86 | 1013.9 |
| 20260505231935 | 5 | 39 | 6.4 | 9.7 | 0.00 | 0.00 | 0.00 | 85 | 1014.0 |
| 20260505231652 | 6 | 48 | 4.8 | 11.3 | 0.00 | 0.00 | 0.00 | 85 | 1014.0 |
| 20260505230935 | 6 | 52 | 6.4 | 11.3 | 0.00 | 0.00 | 0.00 | 85 | 1014.0 |
| 20260505230436 | 6 | 52 | 4.8 | 16.1 | 0.00 | 0.00 | 0.00 | 85 | 1013.8 |
| 20260505230155 | 6 | 20 | 8.0 | 16.1 | 0.00 | 0.00 | 0.00 | 85 | 1014.0 |
| 20260505225434 | 6 | 25 | 8.0 | 14.5 | 0.00 | 0.00 | 0.00 | 85 | 1014.0 |
| 20260505224934 | 6 | 45 | 8.0 | 14.5 | 0.00 | 0.00 | 0.00 | 85 | 1014.0 |
| 20260505224435 | 6 | 4 | 9.7 | 14.5 | 0.00 | 0.00 | 0.00 | 85 | 1014.1 |
| 20260505224200 | 6 | 13 | 6.4 | 14.5 | 0.00 | 0.00 | 0.00 | 85 | 1014.1 |
| 20260505223435 | 6 | 1 | 8.0 | 16.1 | 0.00 | 0.00 | 0.00 | 84 | 1014.1 |
| 20260505222935 | 6 | 21 | 8.0 | 17.7 | 0.00 | 0.00 | 0.00 | 85 | 1014.0 |
| 20260505222658 | 6 | 17 | 9.7 | 17.7 | 0.00 | 0.00 | 0.00 | 85 | 1014.0 |
| 20260505222158 | 6 | 34 | 9.7 | 11.3 | 0.00 | 0.00 | 0.00 | 85 | 1014.1 |
| 20260505221434 | 6 | 14 | 8.0 | 11.3 | 0.00 | 0.00 | 0.00 | 84 | 1014.1 |
| 20260505220934 | 6 | 21 | 8.0 | 16.1 | 0.00 | 0.00 | 0.00 | 84 | 1014.0 |
| 20260505220433 | 6 | 27 | 8.0 | 17.7 | 0.00 | 0.00 | 0.00 | 84 | 1013.9 |
| 20260505215933 | 6 | 10 | 9.7 | 17.7 | 0.00 | 0.00 | 0.00 | 84 | 1013.9 |
| 20260505215434 | 6 | 3 | 9.7 | 22.5 | 0.00 | 0.00 | 0.00 | 84 | 1013.9 |
| 20260505215159 | 6 | 20 | 8.0 | 22.5 | 0.00 | 0.00 | 0.00 | 84 | 1013.9 |
| 20260505214433 | 6 | 0 | 8.0 | 17.7 | 0.00 | 0.00 | 0.00 | 83 | 1013.9 |
| 20260505213934 | 6 | 27 | 9.7 | 17.7 | 0.00 | 0.00 | 0.00 | 84 | 1013.9 |
| 20260505213659 | 6 | 20 | 9.7 | 20.9 | 0.00 | 0.00 | 0.00 | 84 | 1013.8 |
| 20260505212933 | 6 | 20 | 9.7 | 20.9 | 0.00 | 0.00 | 0.00 | 84 | 1013.8 |
| 20260505212654 | 6 | 107 | 9.7 | 19.3 | 0.00 | 0.00 | 0.00 | 84 | 1013.8 |
| 20260505211932 | 6 | 56 | 9.7 | 19.3 | 0.00 | 0.00 | 0.00 | 84 | 1013.8 |
| 20260505211432 | 6 | 6 | 11.3 | 22.5 | 0.00 | 0.00 | 0.00 | 84 | 1013.9 |
| 20260505210933 | 6 | 32 | 14.5 | 22.5 | 0.00 | 0.00 | 0.00 | 84 | 1013.9 |
| 20260505210432 | 6 | 18 | 12.9 | 20.9 | 0.00 | 0.00 | 0.00 | 84 | 1013.8 |
| 20260505210153 | 6 | 18 | 14.5 | 20.9 | 0.00 | 0.00 | 0.00 | 84 | 1013.9 |
| 20260505205652 | 7 | 44 | 11.3 | 19.3 | 0.00 | 0.00 | 0.00 | 85 | 1014.0 |
| 20260505204932 | 7 | 0 | 9.7 | 19.3 | 0.00 | 0.00 | 0.00 | 85 | 1013.9 |
| 20260505204432 | 7 | 30 | 9.7 | 19.3 | 0.00 | 0.00 | 0.00 | 84 | 1013.9 |
| 20260505203932 | 7 | 11 | 8.0 | 19.3 | 0.00 | 0.00 | 0.00 | 84 | 1013.9 |
| 20260505203431 | 7 | 6 | 8.0 | 25.7 | 0.00 | 0.00 | 0.00 | 84 | 1013.9 |
| 20260505202932 | 7 | 14 | 8.0 | 25.7 | 0.00 | 0.00 | 0.00 | 84 | 1013.8 |
| 20260505202432 | 7 | 0 | 11.3 | 22.5 | 0.00 | 0.00 | 0.00 | 84 | 1013.8 |
| 20260505201932 | 7 | 14 | 8.0 | 19.3 | 0.00 | 0.00 | 0.00 | 84 | 1013.8 |
| 20260505201431 | 7 | 55 | 8.0 | 17.7 | 0.00 | 0.00 | 0.00 | 84 | 1013.8 |
| 20260505201155 | 7 | 25 | 9.7 | 22.5 | 0.00 | 0.00 | 0.00 | 83 | 1013.8 |
| 20260505200430 | 7 | 35 | 11.3 | 22.5 | 0.00 | 0.00 | 0.00 | 83 | 1013.8 |
| 20260505195931 | 7 | 7 | 9.7 | 22.5 | 0.00 | 0.00 | 0.00 | 83 | 1013.8 |
| 20260505194930 | 7 | 11 | 9.7 | 20.9 | 0.00 | 0.00 | 0.00 | 83 | 1013.8 |
| 20260505194430 | 7 | 1 | 9.7 | 20.9 | 0.00 | 0.00 | 0.00 | 82 | 1013.7 |
| 20260505193930 | 7 | 8 | 8.0 | 20.9 | 0.00 | 0.00 | 0.00 | 82 | 1013.6 |
| 20260505193429 | 7 | 18 | 9.7 | 19.3 | 0.00 | 0.00 | 0.00 | 82 | 1013.7 |
| 20260505192929 | 7 | 48 | 11.3 | 25.7 | 0.00 | 0.00 | 0.00 | 81 | 1013.5 |
| 20260505192429 | 7 | 8 | 12.9 | 25.7 | 0.00 | 0.00 | 0.00 | 81 | 1013.5 |
| 20260505191930 | 7 | 45 | 8.0 | 20.9 | 0.00 | 0.00 | 0.00 | 80 | 1013.5 |
| 20260505191429 | 7 | 45 | 11.3 | 24.1 | 0.00 | 0.00 | 0.00 | 80 | 1013.5 |
| 20260505190928 | 7 | 21 | 14.5 | 25.7 | 0.00 | 0.00 | 0.00 | 80 | 1013.4 |
| 20260505190429 | 7 | 35 | 14.5 | 25.7 | 0.00 | 0.00 | 0.00 | 79 | 1013.5 |
| 20260505185930 | 7 | 357 | 9.7 | 22.5 | 0.00 | 0.00 | 0.00 | 80 | 1013.4 |
| 20260505185429 | 7 | 49 | 9.7 | 24.1 | 0.00 | 0.00 | 0.00 | 80 | 1013.4 |
| 20260505184929 | 7 | 25 | 14.5 | 24.1 | 0.00 | 0.00 | 0.00 | 80 | 1013.5 |
| 20260505184428 | 7 | 10 | 11.3 | 22.5 | 0.00 | 0.00 | 0.00 | 80 | 1013.5 |
| 20260505183930 | 7 | 11 | 12.9 | 20.9 | 0.00 | 0.00 | 0.00 | 80 | 1013.4 |
| 20260505183428 | 7 | 8 | 9.7 | 24.1 | 0.00 | 0.00 | 0.00 | 80 | 1013.3 |
| 20260505182428 | 8 | 30 | 9.7 | 27.4 | 0.00 | 0.00 | 0.00 | 80 | 1013.2 |
| 20260505181927 | 8 | 24 | 9.7 | 22.5 | 0.00 | 0.00 | 0.00 | 79 | 1013.2 |
| 20260505181429 | 8 | 0 | 8.0 | 29.0 | 0.00 | 0.00 | 0.00 | 79 | 1013.2 |
| 20260505180928 | 8 | 0 | 19.3 | 29.0 | 0.00 | 0.00 | 0.00 | 79 | 1013.1 |
| 20260505180428 | 8 | 23 | 9.7 | 25.7 | 0.00 | 0.00 | 0.00 | 79 | 1013.1 |
| 20260505180145 | 8 | 0 | 9.7 | 25.7 | 0.00 | 0.00 | 0.00 | 79 | 1013.1 |
| 20260505175428 | 8 | 8 | 14.5 | 25.7 | 0.00 | 0.00 | 0.00 | 80 | 1013.1 |
| 20260505174927 | 8 | 0 | 12.9 | 30.6 | 0.00 | 0.00 | 0.00 | 79 | 1013.2 |
| 20260505174649 | 8 | 0 | 14.5 | 30.6 | 0.00 | 0.00 | 0.00 | 79 | 1013.1 |
| 20260505173927 | 8 | 0 | 14.5 | 25.7 | 0.00 | 0.00 | 0.00 | 79 | 1013.1 |
| 20260505173427 | 8 | 8 | 17.7 | 25.7 | 0.00 | 0.00 | 0.00 | 80 | 1013.0 |
| 20260505173150 | 8 | 44 | 14.5 | 24.1 | 0.00 | 0.00 | 0.00 | 80 | 1013.1 |
| 20260505172427 | 8 | 39 | 14.5 | 29.0 | 0.00 | 0.00 | 0.00 | 80 | 1013.2 |
| 20260505171926 | 8 | 14 | 16.1 | 29.0 | 0.00 | 0.00 | 0.00 | 80 | 1013.1 |
| 20260505171427 | 8 | 61 | 12.9 | 25.7 | 0.00 | 0.00 | 0.00 | 80 | 1013.2 |
| 20260505170926 | 8 | 1 | 14.5 | 25.7 | 0.00 | 0.00 | 0.00 | 80 | 1013.1 |
| 20260505170438 | 8 | 353 | 9.7 | 24.1 | 0.00 | 0.00 | 0.00 | 79 | 1013.1 |
| 20260505165926 | 8 | 7 | 14.5 | 24.1 | 0.00 | 0.00 | 0.00 | 79 | 1013.1 |
| 20260505165425 | 9 | 16 | 12.9 | 24.1 | 0.00 | 0.00 | 0.00 | 79 | 1013.1 |
| 20260505165143 | 9 | 11 | 12.9 | 35.4 | 0.00 | 0.00 | 0.00 | 79 | 1013.0 |
| 20260505164423 | 9 | 25 | 14.5 | 35.4 | 0.00 | 0.00 | 0.00 | 79 | 1012.9 |
| 20260505163920 | 9 | 16 | 16.1 | 27.4 | 0.00 | 0.00 | 0.00 | 78 | 1012.9 |
| 20260505163420 | 10 | 8 | 14.5 | 32.2 | 0.00 | 0.00 | 0.00 | 77 | 1012.8 |
| 20260505162918 | 10 | 34 | 17.7 | 32.2 | 0.00 | 0.00 | 0.00 | 75 | 1012.8 |
| 20260505162418 | 10 | 0 | 16.1 | 25.7 | 0.00 | 0.00 | 0.00 | 74 | 1012.7 |
| 20260505162142 | 10 | 4 | 9.7 | 24.1 | 0.00 | 0.00 | 0.00 | 75 | 1012.6 |
| 20260505161419 | 10 | 41 | 12.9 | 24.1 | 0.00 | 0.00 | 0.00 | 75 | 1012.7 |
| 20260505160416 | 10 | 42 | 16.1 | 25.7 | 0.00 | 0.00 | 0.00 | 76 | 1012.7 |
| 20260505152912 | 10 | 14 | 12.9 | 22.5 | 0.00 | 0.00 | 0.00 | 78 | 1012.7 |
| 20260505152643 | 10 | 76 | 12.9 | 22.5 | 0.00 | 0.00 | 0.00 | 78 | 1012.7 |
| 20260505151911 | 10 | 34 | 11.3 | 19.3 | 0.00 | 0.00 | 0.00 | 77 | 1012.6 |
| 20260505151410 | 10 | 49 | 9.7 | 20.9 | 0.00 | 0.00 | 0.00 | 77 | 1012.6 |
| 20260505150910 | 10 | 32 | 12.9 | 20.9 | 0.00 | 0.00 | 0.00 | 78 | 1012.5 |
| 20260505150409 | 10 | 37 | 9.7 | 20.9 | 0.00 | 0.00 | 0.00 | 77 | 1012.5 |
| 20260505140409 | 10 | 6 | 12.9 | 24.1 | 0.00 | 0.00 | 0.00 | 80 | 1012.2 |
| 20260505130140 | 12 | 75 | 9.7 | 19.3 | 0.00 | 0.00 | 0.00 | 71 | 1012.0 |
| 20260505124907 | 12 | 68 | 8.0 | 16.1 | 0.00 | 0.00 | 0.00 | 68 | 1011.9 |
| 20260505124407 | 12 | 31 | 9.7 | 16.1 | 0.00 | 0.00 | 0.00 | 65 | 1011.9 |
| 20260505123906 | 13 | 354 | 4.8 | 16.1 | 0.00 | 0.00 | 0.00 | 71 | 1011.9 |
| 20260505123401 | 12 | 357 | 9.7 | 16.1 | 0.00 | 0.00 | 0.00 | 69 | 1011.9 |
| 20260505122901 | 12 | 11 | 9.7 | 16.1 | 0.00 | 0.00 | 0.00 | 67 | 1011.9 |
| 20260505122401 | 12 | 4 | 3.2 | 14.5 | 0.00 | 0.00 | 0.00 | 69 | 1012.0 |
| 20260505121901 | 12 | 347 | 6.4 | 14.5 | 0.00 | 0.00 | 0.00 | 68 | 1012.0 |
| 20260505121402 | 11 | 351 | 6.4 | 11.3 | 0.00 | 0.00 | 0.00 | 68 | 1012.0 |
| 20260505120859 | 11 | 338 | 6.4 | 11.3 | 0.00 | 0.00 | 0.00 | 71 | 1011.9 |
| 20260505120626 | 11 | 18 | 1.6 | 9.7 | 0.00 | 0.00 | 0.00 | 70 | 1012.0 |
| 20260505115857 | 11 | 39 | 6.4 | 14.5 | 0.00 | 0.00 | 0.00 | 69 | 1012.0 |
| 20260505115357 | 11 | 357 | 4.8 | 14.5 | 0.00 | 0.00 | 0.00 | 70 | 1012.1 |
| 20260505115118 | 11 | 16 | 6.4 | 14.5 | 0.00 | 0.00 | 0.00 | 71 | 1012.0 |
| 20260505114358 | 11 | 49 | 6.4 | 16.1 | 0.00 | 0.00 | 0.00 | 72 | 1012.0 |
| 20260505113855 | 11 | 0 | 9.7 | 16.1 | 0.00 | 0.00 | 0.00 | 71 | 1012.0 |
| 20260505113355 | 11 | 17 | 6.4 | 14.5 | 0.00 | 0.00 | 0.00 | 70 | 1012.1 |
| 20260505112855 | 11 | 20 | 9.7 | 16.1 | 0.00 | 0.00 | 0.00 | 69 | 1012.1 |
| 20260505112353 | 11 | 21 | 8.0 | 19.3 | 0.00 | 0.00 | 0.00 | 69 | 1012.0 |
| 20260505111855 | 11 | 28 | 9.7 | 19.3 | 0.00 | 0.00 | 0.00 | 69 | 1012.0 |
| 20260505111351 | 11 | 0 | 9.7 | 17.7 | 0.00 | 0.00 | 0.00 | 67 | 1012.0 |
| 20260505110852 | 11 | 68 | 8.0 | 17.7 | 0.00 | 0.00 | 0.00 | 68 | 1011.9 |
| 20260505110351 | 11 | 59 | 9.7 | 14.5 | 0.00 | 0.00 | 0.00 | 67 | 1011.9 |
| 20260505101840 | 11 | 336 | 4.8 | 17.7 | 0.00 | 0.00 | 0.00 | 66 | 1012.0 |
| 20260505101340 | 11 | 350 | 6.4 | 17.7 | 0.00 | 0.00 | 0.00 | 68 | 1011.9 |
| 20260505100838 | 11 | 340 | 11.3 | 17.7 | 0.00 | 0.00 | 0.00 | 67 | 1012.0 |
| 20260505095843 | 11 | 323 | 8.0 | 16.1 | 0.00 | 0.00 | 0.00 | 69 | 1012.0 |
| 20260505095337 | 11 | 348 | 8.0 | 16.1 | 0.00 | 0.00 | 0.00 | 68 | 1012.0 |
| 20260505094836 | 11 | 4 | 4.8 | 16.1 | 0.00 | 0.00 | 0.00 | 69 | 1012.0 |
| 20260505094337 | 11 | 347 | 6.4 | 19.3 | 0.00 | 0.00 | 0.00 | 70 | 1012.1 |
| 20260505093838 | 11 | 309 | 9.7 | 19.3 | 0.00 | 0.03 | 0.00 | 70 | 1012.1 |
| 20260505093337 | 11 | 336 | 6.4 | 20.9 | 0.00 | 0.03 | 0.00 | 71 | 1012.0 |
| 20260505092838 | 11 | 358 | 11.3 | 20.9 | 0.00 | 0.03 | 0.00 | 69 | 1012.0 |
| 20260505092557 | 11 | 341 | 8.0 | 19.3 | 0.00 | 0.03 | 0.00 | 70 | 1012.0 |
| 20260505091836 | 11 | 338 | 9.7 | 19.3 | 0.00 | 0.03 | 0.00 | 71 | 1012.0 |
| 20260505091337 | 11 | 327 | 11.3 | 20.9 | 0.00 | 0.03 | 0.00 | 69 | 1012.0 |
| 20260505090836 | 11 | 0 | 8.0 | 24.1 | 0.00 | 0.03 | 0.00 | 69 | 1012.0 |
| 20260505090338 | 11 | 353 | 12.9 | 24.1 | 0.00 | 0.03 | 0.00 | 68 | 1012.0 |
| 20260505085837 | 12 | 316 | 6.4 | 19.3 | 0.00 | 0.03 | 0.00 | 68 | 1012.0 |
| 20260505085334 | 11 | 8 | 11.3 | 20.9 | 0.00 | 0.03 | 0.00 | 70 | 1012.0 |
| 20260505084835 | 11 | 334 | 9.7 | 20.9 | 0.00 | 0.03 | 0.00 | 70 | 1012.0 |
| 20260505084341 | 11 | 3 | 11.3 | 20.9 | 0.00 | 0.03 | 0.00 | 70 | 1012.0 |
| 20260505083839 | 11 | 347 | 9.7 | 16.1 | 0.00 | 0.03 | 0.00 | 71 | 1011.9 |
| 20260505083342 | 11 | 321 | 4.8 | 16.1 | 0.00 | 0.03 | 0.00 | 72 | 1012.0 |
| 20260505082836 | 11 | 309 | 9.7 | 17.7 | 0.00 | 0.03 | 0.00 | 72 | 1012.0 |
| 20260505082335 | 11 | 340 | 8.0 | 17.7 | 0.00 | 0.03 | 0.00 | 70 | 1012.0 |
| 20260505081833 | 11 | 340 | 6.4 | 17.7 | 0.00 | 0.03 | 0.00 | 67 | 1012.0 |
| 20260505081332 | 11 | 292 | 8.0 | 16.1 | 0.00 | 0.03 | 0.00 | 67 | 1012.0 |
| 20260505080830 | 11 | 350 | 8.0 | 20.9 | 0.00 | 0.03 | 0.00 | 68 | 1012.0 |
| 20260505080553 | 11 | 0 | 6.4 | 20.9 | 0.00 | 0.03 | 0.00 | 68 | 1012.0 |
| 20260505075826 | 11 | 326 | 8.0 | 22.5 | 0.00 | 0.03 | 0.00 | 66 | 1012.0 |
| 20260505075327 | 11 | 353 | 11.3 | 24.1 | 0.00 | 0.03 | 0.00 | 67 | 1012.0 |
| 20260505074825 | 11 | 321 | 11.3 | 24.1 | 0.00 | 0.03 | 0.00 | 68 | 1011.9 |
| 20260505074322 | 11 | 0 | 9.7 | 22.5 | 0.00 | 0.03 | 0.00 | 68 | 1011.9 |
| 20260505074048 | 11 | 7 | 6.4 | 14.5 | 0.00 | 0.03 | 0.00 | 70 | 1011.8 |
| 20260505073322 | 11 | 306 | 6.4 | 17.7 | 0.00 | 0.03 | 0.00 | 72 | 1011.9 |